Weather in Brest

Belarus     52˚05′36″N   23˚41′08″E
temp.,
°C
wind,
m/s
gust,
m/s
humid.,
%
clouds,
%
prec.,
mm/h
press.,
hPa
HPBL,
m
1 december, tue
tue100:00−1˚ssw357596 0.0 1026228
03:00−2˚s357893 0.0 1026206
06:00−2˚sse358069 0.0 1026188
09:00−2˚sse377935 0.0 1026279
12:00sse48690 0.0 1027488
15:00+1˚se46630 0.0 1026626
18:00−1˚ese38790 0.0 1027287
21:00−2˚se48790 0.0 1028336
2 december, wed
wed200:00−2˚se38800 0.0 1029339
03:00−2˚ese37800 0.0 1030292
06:00−3˚ese36800 0.0 1028272
09:00−3˚e37800 0.0 1029274
12:00−2˚e36780 0.0 1028283
15:00−1˚e358019 0.0 1026313
18:00−1˚e3688100 0.0 1025325
21:00−1˚ese4790100 0.0 1024366
3 december, thu
thu300:00−1˚se3786100 0.0 1024490
03:00−1˚se378793 0.0 1022511
06:00sse477897 0.0 1021701
09:00se488399 0.0 1020689
12:00+1˚se6107982 0.0 1019631
15:00+1˚se698066 0.0 1018552
18:00−1˚se6118491 0.0 1016521
21:00−1˚se6148490 0.0 1016495
4 december, fri
fri400:00−1˚se7148297 0.0 1015512
03:00−1˚se7148191 0.0 1013471
06:00se6148790 0.0 1011494
09:00+3˚se7159193 0.0 1010645
12:00+5˚se71589100 0.0 1009810
15:00+5˚se71688100 0.0 1008790
18:00+5˚se71688100 0.0 1007605
21:00+5˚se7158997 0.0 1008502
5 december, sat
sat500:00+6˚se71490100 0.0 1009483
03:00+7˚se7159198 0.1 1009554
06:00+7˚se71490100 0.4 1010584
09:00+7˚se6139297 0.4 1010501
12:00+8˚se71387100 0.0 1011640
15:00+10˚se61282100 0.0 1011666
18:00+8˚se61489100 0.0 1011557
21:00+8˚se61590100 0.0 1011567